Tracking 18852 objects as of 23-Nov-2017
HD Live streaming from Space Station
objects crossing your sky now

PSLV R/B

Track PSLV R/B now!
10-day predictions


NORAD ID: 25759
Int'l Code: 1999-029D
Perigee: 705.7 km
Apogee: 734.9 km
Inclination: 98.4 °
Period: 99.0 minutes
Semi major axis: 7091 km
RCS: 6.2552 m2 (large)
Launch date: May 26, 1999
Source: India (IND)
Launch site: SRIHARIKOTA (SRI)

Note: This is a ROCKET BODY
aabbcc
Your satellite tracking list
Your tracking list is empty




NASA's NSSDC Master Catalog

Two Line Element Set (TLE):
1 25759U 99029D   17327.22193378  .00000047  00000-0  22172-4 0  9991
2 25759  98.4099 248.1131 0020561 105.5548  19.8192 14.53824616980761
Source of the keplerian elements: AFSPC